Regional Weather Roundup
Issued by NWS Jackson, KY

Home | Current Version | Previous Version | Graphics & Text | Print | Product List | Glossary On
Versions: 1 2 3 4 5 6 7 8 9 10 11 12 13 14 15 16 17 18 19 20 21 22 23 24 25 26 27 28 29 30 31 32 33 34 35 36 37 38 39 40 41 42 43 44 45 46 47 48 49 50
000
ASUS43 KJKL 260211
RWRJKL

EAST KENTUCKY HOURLY WEATHER ROUNDUP
NATIONAL WEATHER SERVICE JACKSON KY
1000 PM EDT FRI JUL 25 2014

NOTE: "FAIR" INDICATES FEW OR NO CLOUDS BELOW 12,000 FEET WITH
NO SIGNIFICANT WEATHER AND/OR OBSTRUCTIONS TO VISIBILITY.

* THESE REPORTS ARE NOT UNDER NWS QUALITY CONTROL AND MAY NOT
  REPORT WEATHER SUCH AS PRECIPITATION AND FOG.

KYZ079-080-083-085-087-088-110-112-115-119-120-260300
...EASTERN KENTUCKY...

CITY           SKY/WX    TMP DP  RH WIND       PRES   REMARKS
JACKSON        MOCLDY    71  56  58 CALM      30.05R
LONDON         MOCLDY    69  63  81 N3        30.04R
SOMERSET*      CLOUDY    68  59  73 CALM      30.04R
MONTICELLO*    CLOUDY    66  64  93 CALM      30.03R
MIDDLESBORO*   CLEAR     67  64  89 CALM      30.05R
HARLAN APT*    CLEAR     63  63 100 MISG      30.06R
HAZARD APT*    CLEAR     66  63  88 CALM      30.05
BLACK MTN*       N/A     59  57  94 E1          N/A
PIKEVILLE APT* CLEAR     70  59  68 CALM      30.04S
BIG SANDY*     MOCLDY    66  62  86 CALM      30.04R
MOREHEAD APT*    N/A     70  61  73 SE3       30.05S
$$

KYZ035-036-041-042-044-050-067-078-099-260300
...CENTRAL KENTUCKY...

CITY           SKY/WX    TMP DP  RH WIND       PRES   REMARKS
MT STERLING*   CLOUDY    72  61  68 S6        30.03S
FLEMING/MASON* CLEAR     70  59  68 SE7       30.02S
DANVILLE*      CLOUDY    68  61  77 CALM      30.03R
RICHMOND*      CLOUDY    68  61  77 SE3       30.02F
LEXINGTON      MOCLDY    72  58  61 SE6       30.01S
FRANKFORT      MOCLDY    71  60  68 SE5       29.99R
$$

KYZ091>093-OHZ055-061-077-WVZ005-015-034-035-042-260300
...SOUTHERN OHIO/WEST VIRGINIA...

CITY           SKY/WX    TMP DP  RH WIND       PRES   REMARKS
COVINGTON      MOCLDY    70  56  61 CALM      29.99R
COLUMBUS       CLOUDY    75  56  51 SE3       29.99S
DAYTON         MOCLDY    68  59  73 CALM      30.02R
WILMINGTON     CLOUDY    68  59  73 S3        29.99R
HUNTINGTON     MOCLDY    68  61  78 E3        30.02R
CHARLESTON     MOCLDY    67  64  90 CALM      30.03R
PINEVILLE*     PTCLDY    63  62  99 MISG      30.11S
BECKLEY        PTCLDY    63  54  72 S5        30.10R
BLUEFIELD      CLEAR     67  59  75 CALM      30.12R
$$

VAZ002-007-008-TNZ017-027-036-066-071-260300
...SOUTHWEST VIRGINIA/EAST TENNESSEE...

CITY           SKY/WX    TMP DP  RH WIND       PRES   REMARKS
WISE*          CLEAR     66  61  82 CALM      30.11R
JONESVILLE*      N/A     64  64 100 CALM      30.05S
ABINGDON*      CLEAR     68  62  79 CALM      30.08R
BRISTOL        PTCLDY    68  62  81 CALM      30.04R
KNOXVILLE      MOCLDY    74  62  66 CALM      29.99F
OAK RIDGE      PTCLDY    74  64  71 CALM      30.02R
CROSSVILLE     CLEAR     65  60  84 S3        30.05S
NASHVILLE      MOCLDY    77  61  57 SW3       29.97R
$$

...KEY TO REMARKS...
VSB - VISIBILITY IN MILES
WCI - WIND CHILL INDEX
HX  - HEAT INDEX

$$



USA.gov is the U.S. government's official web portal to all federal, state and local government web resources and services.